Regional Weather Roundup
Issued by NWS

Home | Current Version | Previous Version | Graphics & Text | Print | Product List | Glossary On
Versions: 1 2 3 4 5 6 7 8 9 10 11 12 13 14 15 16 17 18 19 20 21 22 23 24 25 26 27 28 29 30 31 32 33 34 35 36 37 38 39 40 41 42 43 44 45 46 47 48 49 50
000
ASUS45 KPSR 281600
RWRAZ

ARIZONA HOURLY REGIONAL WEATHER ROUNDUP
NATIONAL WEATHER SERVICE PHOENIX AZ
900 AM MST THU MAY 28 2015

NOTE: FAIR INDICATES FEW OR NO CLOUDS BELOW 12,000 FEET WITH NO
SIGNIFICANT WEATHER AND/OR OBSTRUCTIONS TO VISIBILITY.

AZZ001>003-036-281700-
NORTHWEST ARIZONA

CITY           SKY/WX    TMP DP  RH WIND       PRES   REMARKS
KINGMAN        SUNNY     79  25  13 S6        30.05R
$$

AZZ004>008-015-016-018-281700-
NORTH CENTRAL ARIZONA

CITY           SKY/WX    TMP DP  RH WIND       PRES   REMARKS
GRAND CANYON   SUNNY     66  28  24 NW5       30.22R
WILLIAMS       SUNNY     66  27  22 CALM      30.29S
PRESCOTT       SUNNY     71  26  18 CALM      30.15R
FLAGSTAFF      NOT AVBL
PAYSON         SUNNY     70  23  17 VRB5      30.17S
PAGE           SUNNY     69  41  36 CALM      30.10R
$$

AZZ009>014-017-281700-
NORTHEAST ARIZONA

CITY           SKY/WX    TMP DP  RH WIND       PRES   REMARKS
WINSLOW        NOT AVBL
SAINT JOHNS    SUNNY     68  20  16 CALM      30.17S
WINDOW ROCK    SUNNY     66  31  27 S5        30.20F
$$

AZZ023-281700-
GREATER PHOENIX AREA

CITY           SKY/WX    TMP DP  RH WIND       PRES   REMARKS
PHOENIX        SUNNY     83  38  20 VRB5      29.93R
GLENDALE       SUNNY     82  39  21 N5        29.95S
LUKE AFB       SUNNY     81  39  21 NE5       29.93S
DEER VALLEY    SUNNY     80  34  19 VRB5      29.95R
SCOTTSDALE     SUNNY     80  37  21 VRB5      29.97R
MESA-FALCON    SUNNY     79  36  21 N7        29.95S
MESA-GATEWAY   SUNNY     81  39  22 VRB5      29.97R
CHANDLER       SUNNY     81  39  22 CALM      29.95R
$$

AZZ027-028-281700-
SOUTHWEST MARICOPA COUNTY AND PINAL COUNTY

CITY           SKY/WX    TMP DP  RH WIND       PRES   REMARKS
CASA GRANDE    SUNNY     81  36  19 CALM      29.94F
GILA BEND      SUNNY     82  36  19 N7        29.92R
$$

AZZ503-504-507>509-281700-
SOUTHEAST ARIZONA

CITY           SKY/WX    TMP DP  RH WIND       PRES   REMARKS
TUCSON         SUNNY     80  31  16 CALM      30.02F
DAVIS-MONTHAN  SUNNY     81  31  16 CALM      30.00F
RYAN FIELD       N/A     81  36  19 NE3       30.01F
NOGALES        SUNNY     77  31  18 VRB5      30.08S
SIERRA VISTA   SUNNY     75  27  16 NE8       30.14S
SAFFORD        SUNNY     77  27  15 CALM      30.03S
$$

AZZ020-021-025-026-031-281700-
SOUTHWEST ARIZONA

CITY           SKY/WX    TMP DP  RH WIND       PRES   REMARKS
YUMA           NOT AVBL
$$

CAZ031-033-041-043-047-048-061-281700-
SOUTHERN CALIFORNIA

CITY           SKY/WX    TMP DP  RH WIND       PRES   REMARKS
DOWNTOWN L.A.  CLOUDY    62  55  77 CALM      30.00S HAZE
L.A. AIRPORT   CLOUDY    60  55  83 S5        30.01R
SAN DIEGO      CLOUDY    63  55  75 NE3       30.02R
BURBANK        CLOUDY    58  53  84 SE5       30.00S HAZE
ONTARIO        PTSUNNY   59  53  80 S5        30.00S HAZE
RIVERSIDE      CLOUDY    59  54  83 CALM      30.01S HAZE
PALM SPRINGS   SUNNY     82  50  32 CALM      29.91S
EL CENTRO NAS  MOSUNNY   79  55  43 CALM      29.89S
IMPERIAL       SUNNY     77  58  51 E5        29.87S
BLYTHE           N/A     82  44  26 S5        29.90R
$$

NVZ020-UTZ003-281700-
SOUTHERN NEVADA-UTAH

CITY           SKY/WX    TMP DP  RH WIND       PRES   REMARKS
LAS VEGAS      NOT AVBL
SALT LAKE CITY MOSUNNY   61  47  59 SE13      30.11S
$$

NMZ009-TXZ055-281700-
NEW MEXICO-WEST TEXAS

CITY           SKY/WX    TMP DP  RH WIND       PRES   REMARKS
ALBUQUERQUE    MOSUNNY   69  33  26 SW3       30.15S
EL PASO        MOSUNNY   82  26  13 CALM      30.04S
$$


........................KEY........................
SKY/WX - SKY CONDITION/WEATHER
TMP    - TEMPERATURE IN FAHRENHEIT
DP     - DEW POINT IN FAHRENHEIT
RH     - RELATIVE HUMIDITY IN PERCENT
WIND   - DIRECTION AND SPEED IN MILES PER HOUR (MPH)
VRB    - VARIABLE WIND DIRECTION
PRES   - MEAN SEA LEVEL PRESSURE IN INCHES OF MERCURY
         F - FALLING PRESSURE   R - RISING PRESSURE
         S - STEADY PRESSURE
VSB    - VISIBILITY IN MILES
HX     - HEAT INDEX IN FAHRENHEIT
WCI    - WIND CHILL INDEX IN FAHRENHEIT
TC     - TEMPERATURE IN CELSIUS WHICH IS ALSO KNOWN AS
         TEMPERATURE IN CENTIGRADE
AFB    - AIR FORCE BASE
         LUKE AFB IS LUKE AIR FORCE BASE
         DAVIS-MONTHAN IS DAVIS-MONTHAN AIR FORCE BASE
NAS    - NAVAL AIR STATION
         EL CENTRO NAS IS EL CENTRO NAVAL AIR STATION
N/A    - NOT AVAILABLE



USA.gov is the U.S. government's official web portal to all federal, state and local government web resources and services.